Wetterdaten: Woche 01.12.14 - 07.12.14 (KW49)
Datum Zeit Temp. Aussen +5cm Feuchte Auss Luftdruck Regen Sonnenschein Regendauer Solar Windben
01.12.2014 00:00 3,2 C 2,2 C 93 % 1011,3 hPa 0,0 l/m 0,00 h 0,00 h 0 W/m 15,2 km/h (3 Bft)
01.12.2014 01:00 3,1 C 2,2 C 93 % 1010,8 hPa 0,0 l/m 0,00 h 0,00 h 0 W/m 16,5 km/h (3 Bft)
01.12.2014 02:00 3,1 C 2,2 C 94 % 1010,7 hPa 0,0 l/m 0,00 h 0,00 h 0 W/m 15,6 km/h (3 Bft)
01.12.2014 03:00 3,0 C 2,2 C 94 % 1010,8 hPa 0,0 l/m 0,00 h 0,00 h 0 W/m 17,6 km/h (3 Bft)
01.12.2014 04:00 2,9 C 2,2 C 93 % 1010,7 hPa 0,0 l/m 0,00 h 0,00 h 0 W/m 15,3 km/h (3 Bft)
01.12.2014 05:00 2,9 C 2,2 C 92 % 1010,7 hPa 0,0 l/m 0,00 h 0,00 h 0 W/m 11,8 km/h (2 Bft)
01.12.2014 06:00 2,9 C 2,2 C 92 % 1010,8 hPa 0,0 l/m 0,00 h 0,00 h 0 W/m 18,5 km/h (3 Bft)
01.12.2014 07:00 3,1 C 2,2 C 91 % 1010,9 hPa 0,0 l/m 0,00 h 0,00 h 0 W/m 7,6 km/h (2 Bft)
01.12.2014 08:00 3,2 C 2,2 C 91 % 1011,1 hPa 0,0 l/m 0,00 h 0,00 h 6 W/m 15,9 km/h (3 Bft)
01.12.2014 09:00 3,3 C 2,7 C 90 % 1011,6 hPa 0,0 l/m 0,00 h 0,00 h 15 W/m 18,8 km/h (3 Bft)
01.12.2014 10:00 3,4 C 2,8 C 89 % 1011,6 hPa 0,0 l/m 0,00 h 0,00 h 30 W/m 16,2 km/h (3 Bft)
01.12.2014 11:00 3,5 C 2,9 C 88 % 1011,2 hPa 0,0 l/m 0,00 h 0,00 h 44 W/m 16,9 km/h (3 Bft)
01.12.2014 12:00 3,8 C 3,3 C 88 % 1011,0 hPa 0,0 l/m 0,00 h 0,00 h 41 W/m 15,9 km/h (3 Bft)
01.12.2014 13:00 3,9 C 3,3 C 87 % 1010,7 hPa 0,0 l/m 0,00 h 0,00 h 35 W/m 12,2 km/h (2 Bft)
01.12.2014 14:00 3,9 C 2,9 C 88 % 1010,6 hPa 0,0 l/m 0,00 h 0,00 h 27 W/m 13,7 km/h (3 Bft)
01.12.2014 15:00 3,6 C 2,8 C 88 % 1010,9 hPa 0,0 l/m 0,00 h 0,00 h 12 W/m 18,0 km/h (3 Bft)
01.12.2014 16:00 3,4 C 2,5 C 88 % 1011,2 hPa 0,0 l/m 0,00 h 0,00 h 4 W/m 19,9 km/h (4 Bft)
01.12.2014 17:00 3,2 C 2,2 C 88 % 1011,2 hPa 0,0 l/m 0,00 h 0,00 h 0 W/m 17,6 km/h (3 Bft)
01.12.2014 18:00 3,0 C 2,2 C 87 % 1011,3 hPa 0,0 l/m 0,00 h 0,00 h 0 W/m 16,3 km/h (3 Bft)
01.12.2014 19:00 2,8 C 2,1 C 87 % 1011,5 hPa 0,0 l/m 0,00 h 0,00 h 0 W/m 20,1 km/h (4 Bft)
01.12.2014 20:00 2,5 C 1,7 C 86 % 1011,6 hPa 0,0 l/m 0,00 h 0,00 h 0 W/m 21,3 km/h (4 Bft)
01.12.2014 21:00 2,3 C 1,7 C 88 % 1011,5 hPa 0,0 l/m 0,00 h 0,00 h 0 W/m 19,6 km/h (3 Bft)
01.12.2014 22:00 2,2 C 1,7 C 88 % 1011,6 hPa 0,0 l/m 0,00 h 0,00 h 0 W/m 15,7 km/h (3 Bft)
01.12.2014 23:00 2,1 C 1,1 C 88 % 1011,7 hPa 0,0 l/m 0,00 h 0,00 h 0 W/m 14,3 km/h (3 Bft)
02.12.2014 00:00 1,8 C 1,1 C 89 % 1011,9 hPa 0,0 l/m 0,00 h 0,00 h 0 W/m 18,7 km/h (3 Bft)
02.12.2014 01:00 1,6 C 0,9 C 90 % 1011,9 hPa 0,0 l/m 0,00 h 0,00 h 0 W/m 14,7 km/h (3 Bft)
02.12.2014 02:00 1,4 C 0,6 C 91 % 1011,8 hPa 0,0 l/m 0,00 h 0,00 h 0 W/m 14,3 km/h (3 Bft)
02.12.2014 03:00 1,3 C 0,9 C 91 % 1012,1 hPa 0,0 l/m 0,00 h 0,00 h 0 W/m 12,2 km/h (2 Bft)
02.12.2014 04:00 1,4 C 0,9 C 91 % 1012,0 hPa 0,0 l/m 0,00 h 0,00 h 0 W/m 12,9 km/h (3 Bft)
02.12.2014 05:00 1,6 C 1,1 C 90 % 1012,2 hPa 0,0 l/m 0,00 h 0,00 h 0 W/m 13,6 km/h (3 Bft)
02.12.2014 06:00 1,6 C 1,1 C 89 % 1011,9 hPa 0,0 l/m 0,00 h 0,00 h 0 W/m 13,6 km/h (3 Bft)
02.12.2014 07:00 1,7 C 1,1 C 89 % 1012,2 hPa 0,0 l/m 0,00 h 0,00 h 0 W/m 12,1 km/h (2 Bft)
02.12.2014 08:00 1,7 C 1,1 C 89 % 1012,7 hPa 0,0 l/m 0,00 h 0,00 h 9 W/m 9,0 km/h (2 Bft)
02.12.2014 09:00 1,8 C 1,2 C 89 % 1013,0 hPa 0,0 l/m 0,00 h 0,00 h 22 W/m 8,5 km/h (2 Bft)
02.12.2014 10:00 2,1 C 1,7 C 88 % 1013,3 hPa 0,0 l/m 0,00 h 0,00 h 40 W/m 11,5 km/h (2 Bft)
02.12.2014 11:00 2,2 C 1,7 C 87 % 1013,4 hPa 0,0 l/m 0,00 h 0,00 h 61 W/m 15,5 km/h (3 Bft)
02.12.2014 12:00 2,1 C 1,7 C 86 % 1013,4 hPa 0,0 l/m 0,00 h 0,00 h 67 W/m 16,3 km/h (3 Bft)
02.12.2014 13:00 2,2 C 1,7 C 85 % 1013,4 hPa 0,0 l/m 0,00 h 0,00 h 90 W/m 18,0 km/h (3 Bft)
02.12.2014 14:00 2,0 C 1,5 C 86 % 1013,5 hPa 0,0 l/m 0,00 h 0,00 h 71 W/m 20,2 km/h (4 Bft)
02.12.2014 15:00 1,9 C 1,1 C 86 % 1013,9 hPa 0,0 l/m 0,00 h 0,00 h 28 W/m 20,2 km/h (4 Bft)
02.12.2014 16:00 1,8 C 1,1 C 86 % 1014,5 hPa 0,0 l/m 0,00 h 0,00 h 7 W/m 18,2 km/h (3 Bft)
02.12.2014 17:00 1,6 C 0,7 C 87 % 1015,0 hPa 0,0 l/m 0,00 h 0,00 h 0 W/m 17,4 km/h (3 Bft)
02.12.2014 18:00 1,6 C 0,7 C 88 % 1015,5 hPa 0,0 l/m 0,00 h 0,00 h 0 W/m 16,8 km/h (3 Bft)
02.12.2014 19:00 1,6 C 1,1 C 87 % 1015,8 hPa 0,0 l/m 0,00 h 0,00 h 0 W/m 17,5 km/h (3 Bft)
02.12.2014 20:00 1,6 C 0,6 C 87 % 1016,4 hPa 0,0 l/m 0,00 h 0,00 h 0 W/m 17,5 km/h (3 Bft)
02.12.2014 21:00 1,4 C 0,6 C 87 % 1016,8 hPa 0,0 l/m 0,00 h 0,00 h 0 W/m 19,5 km/h (3 Bft)
02.12.2014 22:00 1,2 C 0,6 C 87 % 1017,3 hPa 0,0 l/m 0,00 h 0,00 h 0 W/m 15,6 km/h (3 Bft)
02.12.2014 23:00 1,1 C 0,5 C 87 % 1017,8 hPa 0,0 l/m 0,00 h 0,00 h 0 W/m 13,9 km/h (3 Bft)
03.12.2014 00:00 1,0 C 0,0 C 88 % 1018,2 hPa 0,0 l/m 0,00 h 0,00 h 0 W/m 14,0 km/h (3 Bft)
03.12.2014 01:00 0,9 C 0,0 C 88 % 1018,4 hPa 0,0 l/m 0,00 h 0,00 h 0 W/m 13,4 km/h (3 Bft)
03.12.2014 02:00 0,8 C 0,0 C 88 % 1018,6 hPa 0,0 l/m 0,00 h 0,00 h 0 W/m 16,8 km/h (3 Bft)
03.12.2014 03:00 0,5 C 0,0 C 88 % 1018,9 hPa 0,0 l/m 0,00 h 0,00 h 0 W/m 17,1 km/h (3 Bft)
03.12.2014 04:00 0,4 C -0,4 C 89 % 1019,1 hPa 0,0 l/m 0,00 h 0,00 h 0 W/m 15,0 km/h (3 Bft)
03.12.2014 05:00 0,2 C -0,8 C 91 % 1019,2 hPa 0,0 l/m 0,00 h 0,00 h 0 W/m 17,8 km/h (3 Bft)
03.12.2014 06:00 -0,1 C -0,8 C 93 % 1019,3 hPa 0,0 l/m 0,00 h 0,03 h 0 W/m 14,7 km/h (3 Bft)
03.12.2014 07:00 -0,3 C -1,1 C 94 % 1019,7 hPa 0,0 l/m 0,00 h 0,13 h 0 W/m 14,4 km/h (3 Bft)
03.12.2014 08:00 -0,6 C -1,5 C 95 % 1020,2 hPa 0,0 l/m 0,00 h 0,00 h 0 W/m 18,2 km/h (3 Bft)
03.12.2014 09:00 -0,6 C -1,4 C 95 % 1020,7 hPa 0,0 l/m 0,00 h 0,00 h 8 W/m 19,2 km/h (3 Bft)
03.12.2014 10:00 -0,8 C -1,3 C 94 % 1021,1 hPa 0,0 l/m 0,00 h 0,00 h 13 W/m 16,2 km/h (3 Bft)
03.12.2014 11:00 -0,6 C -1,1 C 93 % 1021,1 hPa 0,0 l/m 0,00 h 0,00 h 20 W/m 15,9 km/h (3 Bft)
03.12.2014 12:00 -0,4 C -0,7 C 92 % 1021,0 hPa 0,0 l/m 0,00 h 0,00 h 22 W/m 16,8 km/h (3 Bft)
03.12.2014 13:00 -0,2 C -0,6 C 92 % 1020,9 hPa 0,0 l/m 0,00 h 0,00 h 27 W/m 16,8 km/h (3 Bft)
03.12.2014 14:00 -0,2 C -0,6 C 91 % 1020,7 hPa 0,0 l/m 0,00 h 0,00 h 25 W/m 17,8 km/h (3 Bft)
03.12.2014 15:00 -0,5 C -1,0 C 90 % 1020,6 hPa 0,0 l/m 0,00 h 0,00 h 15 W/m 17,6 km/h (3 Bft)
03.12.2014 16:00 -0,8 C -1,5 C 90 % 1020,7 hPa 0,0 l/m 0,00 h 0,00 h 6 W/m 20,1 km/h (4 Bft)
03.12.2014 17:00 -1,0 C -1,7 C 90 % 1020,7 hPa 0,0 l/m 0,00 h 0,00 h 0 W/m 17,6 km/h (3 Bft)
03.12.2014 18:00 -1,1 C -1,7 C 90 % 1020,7 hPa 0,0 l/m 0,00 h 0,00 h 0 W/m 16,3 km/h (3 Bft)
03.12.2014 19:00 -1,2 C -1,7 C 90 % 1020,8 hPa 0,0 l/m 0,00 h 0,00 h 0 W/m 17,9 km/h (3 Bft)
03.12.2014 20:00 -1,1 C -1,7 C 90 % 1020,7 hPa 0,0 l/m 0,00 h 0,00 h 0 W/m 15,8 km/h (3 Bft)
03.12.2014 21:00 -0,9 C -1,7 C 90 % 1020,6 hPa 0,0 l/m 0,00 h 0,00 h 0 W/m 13,5 km/h (3 Bft)
03.12.2014 22:00 -0,8 C -1,3 C 90 % 1020,4 hPa 0,0 l/m 0,00 h 0,00 h 0 W/m 16,0 km/h (3 Bft)
03.12.2014 23:00 -0,7 C -1,1 C 90 % 1020,1 hPa 0,0 l/m 0,00 h 0,00 h 0 W/m 13,5 km/h (3 Bft)
04.12.2014 00:00 -0,7 C -1,1 C 90 % 1019,6 hPa 0,0 l/m 0,00 h 0,00 h 0 W/m 13,5 km/h (3 Bft)
04.12.2014 01:00 -0,6 C -1,1 C 90 % 1019,0 hPa 0,0 l/m 0,00 h 0,00 h 0 W/m 14,4 km/h (3 Bft)
04.12.2014 02:00 -0,4 C -1,1 C 91 % 1018,6 hPa 0,0 l/m 0,00 h 0,00 h 0 W/m 13,5 km/h (3 Bft)
04.12.2014 03:00 -0,3 C -0,7 C 91 % 1018,3 hPa 0,0 l/m 0,00 h 0,00 h 0 W/m 11,9 km/h (2 Bft)
04.12.2014 04:00 -0,1 C -0,6 C 91 % 1018,0 hPa 0,0 l/m 0,00 h 0,00 h 0 W/m 13,5 km/h (3 Bft)
04.12.2014 05:00 0,1 C -0,6 C 91 % 1017,5 hPa 0,0 l/m 0,00 h 0,00 h 0 W/m 11,8 km/h (2 Bft)
04.12.2014 06:00 0,3 C -0,6 C 91 % 1017,1 hPa 0,0 l/m 0,00 h 0,00 h 0 W/m 8,7 km/h (2 Bft)
04.12.2014 07:00 0,5 C 0,0 C 92 % 1017,0 hPa 0,0 l/m 0,00 h 0,00 h 0 W/m 8,5 km/h (2 Bft)
04.12.2014 08:00 0,6 C 0,0 C 92 % 1016,9 hPa 0,0 l/m 0,00 h 0,00 h 5 W/m 10,1 km/h (2 Bft)
04.12.2014 09:00 0,8 C 0,4 C 92 % 1016,8 hPa 0,0 l/m 0,00 h 0,00 h 9 W/m 8,1 km/h (2 Bft)
04.12.2014 10:00 1,2 C 0,8 C 92 % 1016,6 hPa 0,0 l/m 0,00 h 0,00 h 32 W/m 11,3 km/h (2 Bft)
04.12.2014 11:00 1,7 C 1,5 C 91 % 1016,4 hPa 0,0 l/m 0,00 h 0,00 h 56 W/m 10,8 km/h (2 Bft)
04.12.2014 12:00 2,1 C 1,4 C 90 % 1016,2 hPa 0,0 l/m 0,00 h 0,00 h 27 W/m 9,0 km/h (2 Bft)
04.12.2014 13:00 2,2 C 1,7 C 90 % 1015,7 hPa 0,0 l/m 0,00 h 0,00 h 33 W/m 8,3 km/h (2 Bft)
04.12.2014 14:00 2,5 C 1,7 C 90 % 1015,3 hPa 0,0 l/m 0,00 h 0,00 h 19 W/m 6,0 km/h (2 Bft)
04.12.2014 15:00 2,6 C 1,7 C 90 % 1015,1 hPa 0,0 l/m 0,00 h 0,00 h 9 W/m 4,4 km/h (1 Bft)
04.12.2014 16:00 2,7 C 1,7 C 90 % 1015,2 hPa 0,0 l/m 0,00 h 0,00 h 4 W/m 3,1 km/h (1 Bft)
04.12.2014 17:00 2,7 C 1,7 C 90 % 1015,2 hPa 0,0 l/m 0,00 h 0,00 h 0 W/m 2,9 km/h (1 Bft)
04.12.2014 18:00 2,7 C 1,7 C 91 % 1015,3 hPa 0,0 l/m 0,00 h 0,00 h 0 W/m 4,2 km/h (1 Bft)
04.12.2014 19:00 2,7 C 1,7 C 91 % 1015,5 hPa 0,0 l/m 0,00 h 0,00 h 0 W/m 4,0 km/h (1 Bft)
04.12.2014 20:00 2,8 C 1,7 C 91 % 1015,6 hPa 0,0 l/m 0,00 h 0,00 h 0 W/m 7,8 km/h (2 Bft)
04.12.2014 21:00 2,8 C 1,7 C 90 % 1015,8 hPa 0,0 l/m 0,00 h 0,00 h 0 W/m 5,9 km/h (2 Bft)
04.12.2014 22:00 2,7 C 1,7 C 90 % 1016,0 hPa 0,0 l/m 0,00 h 0,00 h 0 W/m 4,1 km/h (1 Bft)
04.12.2014 23:00 2,7 C 1,7 C 90 % 1016,2 hPa 0,0 l/m 0,00 h 0,00 h 0 W/m 3,7 km/h (1 Bft)
05.12.2014 00:00 2,6 C 1,7 C 90 % 1016,5 hPa 0,0 l/m 0,00 h 0,00 h 0 W/m 2,0 km/h (1 Bft)
05.12.2014 01:00 2,5 C 1,7 C 91 % 1016,7 hPa 0,0 l/m 0,00 h 0,00 h 0 W/m 2,6 km/h (1 Bft)
05.12.2014 02:00 2,6 C 1,7 C 91 % 1016,8 hPa 0,0 l/m 0,00 h 0,00 h 0 W/m 4,4 km/h (1 Bft)
05.12.2014 03:00 2,7 C 1,7 C 91 % 1017,0 hPa 0,0 l/m 0,00 h 0,00 h 0 W/m 2,5 km/h (1 Bft)
05.12.2014 04:00 2,7 C 1,7 C 92 % 1017,0 hPa 0,0 l/m 0,00 h 0,00 h 0 W/m 3,3 km/h (1 Bft)
05.12.2014 05:00 2,7 C 1,7 C 92 % 1017,1 hPa 0,0 l/m 0,00 h 0,00 h 0 W/m 2,8 km/h (1 Bft)
05.12.2014 06:00 2,7 C 1,7 C 92 % 1017,4 hPa 0,0 l/m 0,00 h 0,00 h 0 W/m 2,7 km/h (1 Bft)
05.12.2014 07:00 2,6 C 1,9 C 93 % 1017,6 hPa 0,0 l/m 0,00 h 0,00 h 0 W/m 4,3 km/h (1 Bft)
05.12.2014 08:00 2,8 C 2,2 C 93 % 1017,8 hPa 0,0 l/m 0,00 h 0,00 h 8 W/m 3,8 km/h (1 Bft)
05.12.2014 09:00 3,1 C 2,6 C 93 % 1018,2 hPa 0,0 l/m 0,00 h 0,00 h 29 W/m 5,7 km/h (1 Bft)
05.12.2014 10:00 3,7 C 3,5 C 93 % 1018,3 hPa 0,0 l/m 0,00 h 0,00 h 61 W/m 9,9 km/h (2 Bft)
05.12.2014 11:00 4,3 C 4,0 C 91 % 1018,4 hPa 0,0 l/m 0,00 h 0,00 h 70 W/m 9,8 km/h (2 Bft)
05.12.2014 12:00 4,9 C 4,4 C 89 % 1018,1 hPa 0,0 l/m 0,00 h 0,00 h 69 W/m 9,9 km/h (2 Bft)
05.12.2014 13:00 5,1 C 4,4 C 88 % 1017,9 hPa 0,0 l/m 0,00 h 0,00 h 58 W/m 9,8 km/h (2 Bft)
05.12.2014 14:00 5,3 C 4,4 C 88 % 1017,6 hPa 0,0 l/m 0,00 h 0,00 h 46 W/m 10,4 km/h (2 Bft)
05.12.2014 15:00 5,3 C 4,3 C 89 % 1017,6 hPa 0,0 l/m 0,00 h 0,00 h 18 W/m 8,2 km/h (2 Bft)
05.12.2014 16:00 5,2 C 3,9 C 90 % 1017,8 hPa 0,0 l/m 0,00 h 0,00 h 6 W/m 7,5 km/h (2 Bft)
05.12.2014 17:00 5,0 C 3,9 C 90 % 1018,0 hPa 0,0 l/m 0,00 h 0,00 h 0 W/m 8,0 km/h (2 Bft)
05.12.2014 18:00 4,7 C 3,3 C 91 % 1018,1 hPa 0,0 l/m 0,00 h 0,00 h 0 W/m 7,9 km/h (2 Bft)
05.12.2014 19:00 4,6 C 3,3 C 91 % 1018,3 hPa 0,0 l/m 0,00 h 0,00 h 0 W/m 10,9 km/h (2 Bft)
05.12.2014 20:00 4,3 C 3,3 C 90 % 1018,4 hPa 0,0 l/m 0,00 h 0,00 h 0 W/m 13,2 km/h (3 Bft)
05.12.2014 21:00 4,5 C 3,3 C 91 % 1018,7 hPa 0,0 l/m 0,00 h 0,00 h 0 W/m 13,7 km/h (3 Bft)
05.12.2014 22:00 4,7 C 3,6 C 91 % 1018,7 hPa 0,0 l/m 0,00 h 0,00 h 0 W/m 15,5 km/h (3 Bft)
05.12.2014 23:00 4,7 C 3,7 C 92 % 1019,0 hPa 0,0 l/m 0,00 h 0,00 h 0 W/m 12,9 km/h (3 Bft)
06.12.2014 00:00 4,7 C 3,5 C 93 % 1019,2 hPa 0,0 l/m 0,00 h 0,00 h 0 W/m 11,9 km/h (2 Bft)
06.12.2014 01:00 4,6 C 3,3 C 94 % 1019,3 hPa 0,0 l/m 0,00 h 0,00 h 0 W/m 12,1 km/h (2 Bft)
06.12.2014 02:00 4,6 C 3,6 C 95 % 1019,5 hPa 0,0 l/m 0,00 h 0,00 h 0 W/m 13,5 km/h (3 Bft)
06.12.2014 03:00 4,6 C 3,9 C 96 % 1019,7 hPa 0,0 l/m 0,00 h 0,00 h 0 W/m 12,4 km/h (3 Bft)
06.12.2014 04:00 4,7 C 3,9 C 96 % 1020,0 hPa 0,0 l/m 0,00 h 0,00 h 0 W/m 9,1 km/h (2 Bft)
06.12.2014 05:00 4,7 C 3,9 C 96 % 1020,4 hPa 0,0 l/m 0,00 h 0,00 h 0 W/m 8,5 km/h (2 Bft)
06.12.2014 06:00 4,8 C 3,9 C 96 % 1021,0 hPa 0,0 l/m 0,00 h 0,00 h 0 W/m 5,5 km/h (1 Bft)
06.12.2014 07:00 4,8 C 3,9 C 96 % 1021,5 hPa 0,0 l/m 0,00 h 0,00 h 0 W/m 3,8 km/h (1 Bft)
06.12.2014 08:00 4,8 C 3,9 C 97 % 1022,0 hPa 0,0 l/m 0,00 h 0,00 h 5 W/m 5,5 km/h (1 Bft)
06.12.2014 09:00 4,8 C 4,0 C 97 % 1022,6 hPa 0,0 l/m 0,00 h 0,00 h 17 W/m 8,3 km/h (2 Bft)
06.12.2014 10:00 5,0 C 4,4 C 97 % 1023,1 hPa 0,0 l/m 0,00 h 0,00 h 36 W/m 6,3 km/h (2 Bft)
06.12.2014 11:00 5,3 C 4,4 C 97 % 1023,5 hPa 0,0 l/m 0,00 h 0,00 h 22 W/m 6,1 km/h (2 Bft)
06.12.2014 12:00 5,4 C 4,8 C 97 % 1023,5 hPa 0,0 l/m 0,00 h 0,00 h 45 W/m 3,2 km/h (1 Bft)
06.12.2014 13:00 5,7 C 5,1 C 97 % 1023,6 hPa 0,0 l/m 0,00 h 0,00 h 45 W/m 3,5 km/h (1 Bft)
06.12.2014 14:00 6,0 C 5,4 C 97 % 1023,7 hPa 0,0 l/m 0,00 h 0,00 h 32 W/m 5,3 km/h (1 Bft)
06.12.2014 15:00 6,2 C 5,2 C 96 % 1023,9 hPa 0,0 l/m 0,00 h 0,00 h 30 W/m 4,5 km/h (1 Bft)
06.12.2014 16:00 6,0 C 4,8 C 96 % 1024,1 hPa 0,0 l/m 0,00 h 0,00 h 9 W/m 2,9 km/h (1 Bft)
06.12.2014 17:00 5,8 C 4,4 C 95 % 1024,4 hPa 0,0 l/m 0,00 h 0,00 h 0 W/m 3,4 km/h (1 Bft)
06.12.2014 18:00 5,7 C 4,4 C 95 % 1024,7 hPa 0,0 l/m 0,00 h 0,00 h 0 W/m 2,6 km/h (1 Bft)
06.12.2014 19:00 5,6 C 4,3 C 95 % 1024,8 hPa 0,0 l/m 0,00 h 0,00 h 0 W/m 3,1 km/h (1 Bft)
06.12.2014 20:00 5,3 C 3,9 C 95 % 1024,8 hPa 0,0 l/m 0,00 h 0,00 h 0 W/m 3,4 km/h (1 Bft)
06.12.2014 21:00 5,1 C 3,9 C 95 % 1024,9 hPa 0,0 l/m 0,00 h 0,00 h 0 W/m 2,7 km/h (1 Bft)
06.12.2014 22:00 4,8 C 3,1 C 95 % 1024,7 hPa 0,0 l/m 0,00 h 0,00 h 0 W/m 4,7 km/h (1 Bft)
06.12.2014 23:00 4,4 C 3,3 C 96 % 1024,5 hPa 0,0 l/m 0,00 h 0,00 h 0 W/m 4,6 km/h (1 Bft)
07.12.2014 00:00 4,5 C 3,3 C 96 % 1024,2 hPa 0,0 l/m 0,00 h 0,00 h 0 W/m 2,2 km/h (1 Bft)
07.12.2014 01:00 4,5 C 3,4 C 96 % 1024,0 hPa 0,0 l/m 0,00 h 0,00 h 0 W/m 5,0 km/h (1 Bft)
07.12.2014 02:00 4,7 C 3,9 C 96 % 1023,4 hPa 0,0 l/m 0,00 h 0,00 h 0 W/m 6,4 km/h (2 Bft)
07.12.2014 03:00 4,6 C 3,2 C 97 % 1022,9 hPa 0,0 l/m 0,00 h 0,00 h 0 W/m 6,7 km/h (2 Bft)
07.12.2014 04:00 3,9 C 2,6 C 96 % 1022,6 hPa 0,0 l/m 0,00 h 0,00 h 0 W/m 8,5 km/h (2 Bft)
07.12.2014 05:00 3,6 C 2,7 C 97 % 1022,4 hPa 0,0 l/m 0,00 h 0,00 h 0 W/m 10,8 km/h (2 Bft)
07.12.2014 06:00 3,3 C 2,2 C 97 % 1022,1 hPa 0,0 l/m 0,00 h 0,00 h 0 W/m 12,9 km/h (3 Bft)
07.12.2014 07:00 3,2 C 2,2 C 97 % 1022,0 hPa 0,0 l/m 0,00 h 0,00 h 0 W/m 14,6 km/h (3 Bft)
07.12.2014 08:00 3,2 C 2,5 C 97 % 1021,7 hPa 0,0 l/m 0,00 h 0,00 h 13 W/m 14,9 km/h (3 Bft)
07.12.2014 09:00 2,9 C 2,2 C 97 % 1021,4 hPa 0,0 l/m 0,90 h 0,00 h 75 W/m 15,8 km/h (3 Bft)
07.12.2014 10:00 4,1 C 3,9 C 98 % 1020,7 hPa 0,0 l/m 1,00 h 0,00 h 181 W/m 21,0 km/h (4 Bft)
07.12.2014 11:00 5,7 C 5,0 C 90 % 1019,8 hPa 0,0 l/m 0,87 h 0,00 h 207 W/m 26,2 km/h (4 Bft)
07.12.2014 12:00 6,3 C 5,2 C 79 % 1019,2 hPa 0,0 l/m 0,03 h 0,00 h 75 W/m 27,0 km/h (4 Bft)
07.12.2014 13:00 6,1 C 5,0 C 76 % 1018,3 hPa 0,0 l/m 0,00 h 0,00 h 46 W/m 25,9 km/h (4 Bft)
07.12.2014 14:00 6,0 C 4,8 C 75 % 1017,5 hPa 0,0 l/m 0,00 h 0,20 h 24 W/m 26,7 km/h (4 Bft)
07.12.2014 15:00 5,8 C 4,4 C 78 % 1016,6 hPa 0,0 l/m 0,00 h 0,20 h 13 W/m 25,1 km/h (4 Bft)
07.12.2014 16:00 5,6 C 3,8 C 83 % 1015,9 hPa 0,0 l/m 0,00 h 0,43 h 3 W/m 26,4 km/h (4 Bft)
07.12.2014 17:00 5,1 C 3,3 C 89 % 1015,2 hPa 0,2 l/m 0,00 h 0,73 h 0 W/m 23,7 km/h (4 Bft)
07.12.2014 18:00 5,1 C 3,3 C 93 % 1015,0 hPa 0,8 l/m 0,00 h 0,80 h 0 W/m 26,0 km/h (4 Bft)
07.12.2014 19:00 5,2 C 3,9 C 95 % 1015,4 hPa 0,2 l/m 0,00 h 0,93 h 0 W/m 33,3 km/h (5 Bft)
07.12.2014 20:00 5,3 C 3,9 C 96 % 1015,9 hPa 0,0 l/m 0,00 h 0,47 h 0 W/m 24,5 km/h (4 Bft)
07.12.2014 21:00 5,3 C 3,9 C 96 % 1016,3 hPa 0,0 l/m 0,00 h 0,00 h 0 W/m 25,0 km/h (4 Bft)
07.12.2014 22:00 5,4 C 3,9 C 96 % 1016,6 hPa 0,8 l/m 0,00 h 0,70 h 0 W/m 25,4 km/h (4 Bft)
07.12.2014 23:00 5,0 C 3,4 C 96 % 1016,9 hPa 0,0 l/m 0,00 h 0,00 h 0 W/m 15,8 km/h (3 Bft)
Min-Datum _ 03.12.14 03.12.14 07.12.14 01.12.14 - - - - 04.12.14
_ Min-Zeit 18:54 07:56 14:10 01:58 - - - - 16:44
Minimum _ -1,2 C -1,7 C 75 % 1010,5 hPa - - - - 0,0 km/h (0 Bft)
Max-Datum _ 07.12.14 06.12.14 07.12.14 06.12.14 07.12.14 07.12.14 03.12.14 07.12.14 07.12.14
_ Max-Zeit 11:58 13:52 09:46 21:18 18:32 09:06 06:52 11:42 14:22
Maximum _ 6,5 C 5,6 C 98 % 1025,0 hPa 0,8 l/m 0,03 h 0,03 h 293 W/m 41,8 km/h
SW (6 Bft)
Durchschnitt _ 2,8 C 2,0 C 91 % 1017,4 hPa #2,0 l/m #2:48 h #4:38 h 35 W/m 12,7 km/h (3 Bft)
© 2015 W. Hausmann